Погода в Кручи

Россия / Орловская область     52°34′15″N   37°17′14″E
темп.,
°C
ветер,
м/с
пор.,
м/с
влажн.,
%
обл.,
%
осадки,
мм/ч
давл.,
гПа
погр.,
м
15 августа, пн
пн1500:00+19всв4115761 0.0 1017187
03:00+18всв3957100 0.0 1017166
06:00+17всв4871100 0.1 1018174
09:00+22в5755100 0.1 1017327
12:00+28в7838100 0.0 10171266
15:00+30в783439 0.0 10161777
18:00+28в6104179 0.0 1016745
21:00+22всв4125171 0.0 1017216
16 августа, вт
вт1600:00+22в6144827 0.0 1016396
03:00+21в615465 0.0 1017421
06:00+19в6154339 0.0 1017373
09:00+23в8133874 0.0 1017510
12:00+27в892991 0.0 10171003
15:00+29в7926100 0.0 10161462
18:00+27в5935100 0.0 1016393
21:00+23всв4846100 0.0 1016156
17 августа, ср
ср1700:00+25в51237100 0.0 1014299
03:00+23всв5134499 0.0 1014348
06:00+23в5104198 0.0 1014327
09:00+22в51149100 0.0 1015426
12:00+25в61046100 0.0 1015500
15:00+28в6836100 0.0 10141210
18:00+25всв4746100 0.0 1014284
21:00+22всв41046100 0.0 1014236
18 августа, чт
чт1800:00+23в7153891 0.0 1013500
03:00+21всв61548100 0.0 1012484
06:00+20всв6145168 0.0 1012402
09:00+23всв8114562 0.1 1012657
12:00+27всв7103640 0.5 10121252
15:00+30всв7113359 1.2 10111974
18:00+27в81338100 0.1 1012909
21:00+23всв51251100 0.1 1013340
19 августа, пт
пт1900:00+20всв41063100 0.2 1013218
03:00+20всв31059100 0.2 1013234
06:00+21в6136461 0.0 1014616
09:00+23в8105864 0.0 1014883
12:00+27в794676 0.0 10131444
15:00+29юв7840100 0.0 10131655
18:00+26всв3755100 0.3 1013316
21:00+22св48574 0.5 1013131